Halifax, Nova Scotia

9:20 AM ADT on June 29, 2017 (GMT -0300)
Halifax International Airport

Weather History for CYHZ - March, 2013

Change the Weather History Date:

Friday, March 1, 2013

  Actual Average Record
Temperature  
Mean Temperature 30 °F -  
Max Temperature 33 °F 37 °F 46 °F (1999)
Min Temperature 28 °F 21 °F 1 °F (2001)
Degree Days  
Heating Degree Days 34    
Moisture  
Dew Point 28 °F    
Average Humidity 89    
Maximum Humidity 100    
Minimum Humidity 42    
Precipitation  
Precipitation 0.00 in 0.16 in - ()
Sea Level Pressure  
Sea Level Pressure 29.43 in    
Wind  
Wind Speed 15 mph ()    
Max Wind Speed 24 mph    
Max Gust Speed 33 mph    
Visibility 11.4 miles    
Events Rain , Snow    
Averages and records for this station are not official NWS values.
T = Trace of Precipitation, MM = Missing Value Source: Averaged Metar Reports

Daily Weather History Graph

Daily Weather History Graph

Search for Another Location

Airport or City:

Trip Planner

Search our weather history database for the weather conditions in past years. The results will help you decide how hot, cold, wet, or windy it might be!

Date:

Astronomy

Mar. 01, 2013 Rise Set
Actual Time 6:51 AM AST 6:01 PM AST
Civil Twilight 6:22 AM AST 6:31 PM AST
Nautical Twilight 5:48 AM AST 7:05 PM AST
Astronomical Twilight 5:14 AM AST 7:39 PM AST
Moon 10:44 PM AST (3/1) 8:22 AM AST (3/1)
Length of Visible Light 12h 09m
Length of Day
11h 10m
Waning Gibbous, 84% of the Moon is Illuminated
Mar 1
Waning Gibbous
Mar 4
Last Quarter
Mar 11
New
Mar 19
First Quarter
Mar 27
Full

Hourly Weather History & Observations

Time (AST) Temp. Windchill Dew Point Humidity Pressure Visibility Wind Dir Wind Speed Gust Speed Precip Events Conditions
12:00 AM 30.2 °F 18.1 °F 21.2 °F 69% 29.61 in 3.0 mi East 18.4 mph 28.8 mph N/A Snow Light Snow
1:00 AM 30.2 °F 20.2 °F 19.4 °F 64% 29.57 in 12.0 mi ENE 12.7 mph 18.4 mph N/A Snow Light Snow
2:00 AM 31 °F - 17 °F 42% 29.53 in 12 mi ENE 12.7 mph - - Snow Light Snow
2:00 AM 32.0 °F 22.1 °F 15.8 °F 51% 29.53 in 12.0 mi ENE 13.8 mph 19.6 mph N/A Snow Light Snow
3:00 AM 30.2 °F 20.8 °F 17.6 °F 60% 29.51 in 12.0 mi NE 11.5 mph 19.6 mph N/A Snow Light Snow
4:00 AM 30.2 °F 21.3 °F 23.0 °F 75% 29.49 in 15.0 mi NNE 10.4 mph - N/A Snow Light Snow
5:00 AM 30.2 °F 20.2 °F 26.6 °F 86% 29.49 in 15.0 mi NE 12.7 mph - N/A Snow Light Snow
6:00 AM 30.2 °F 21.3 °F 28.4 °F 93% 29.47 in 15.0 mi NNE 10.4 mph - N/A   Overcast
7:00 AM 30.2 °F 20.8 °F 28.4 °F 93% 29.46 in 15.0 mi NE 11.5 mph 20.7 mph N/A   Overcast
8:00 AM 29 °F - 27 °F 90% 29.46 in 15 mi NE 15.0 mph - -   Partly Cloudy
8:00 AM 30.2 °F 18.5 °F 26.6 °F 86% 29.46 in 15.0 mi NE 17.3 mph - N/A   Overcast
8:45 AM 30.2 °F 20.8 °F 28.4 °F 93% 29.45 in 15.0 mi NE 11.5 mph 19.6 mph N/A   Overcast
9:00 AM 30.2 °F 19.3 °F 28.4 °F 93% 29.45 in 15.0 mi NNE 15.0 mph 26.5 mph N/A   Overcast
10:00 AM 30.2 °F 17.4 °F 28.4 °F 93% 29.43 in 15.0 mi NNE 20.7 mph - N/A   Overcast
10:40 AM 30.2 °F 18.1 °F 28.4 °F 93% 29.42 in 15.0 mi NNE 18.4 mph 25.3 mph N/A   Overcast
11:00 AM 30.2 °F 17.1 °F 28.4 °F 93% 29.42 in 15.0 mi NNE 21.9 mph - N/A   Overcast
12:00 PM 32.0 °F 19.5 °F 30.2 °F 93% 29.41 in 10.0 mi NNE 21.9 mph 28.8 mph N/A   Light Freezing Drizzle
12:18 PM 32.0 °F 20.1 °F 30.2 °F 93% 29.41 in 15.0 mi North 19.6 mph 26.5 mph N/A   Overcast
12:30 PM 32.0 °F 20.8 °F 30.2 °F 93% 29.40 in 15.0 mi North 17.3 mph 25.3 mph N/A   Light Drizzle
1:00 PM 32.0 °F 20.1 °F 30.2 °F 93% 29.40 in 10.0 mi North 19.6 mph 28.8 mph N/A   Light Freezing Drizzle
1:37 PM 32.0 °F 21.6 °F 30.2 °F 93% 29.40 in 15.0 mi North 15.0 mph 27.6 mph N/A   Overcast
2:00 PM 33 °F - 31 °F 88% 29.39 in 15 mi North 18.4 mph - - Rain Light Freezing Drizzle
2:00 PM 33.8 °F 21.9 °F 30.2 °F 87% 29.39 in 15.0 mi North 21.9 mph - N/A   Overcast
2:33 PM 33.8 °F 23.2 °F 32.0 °F 93% 29.39 in 3.0 mi North 17.3 mph 24.2 mph N/A   Light Drizzle
3:00 PM 32.0 °F 20.1 °F 32.0 °F 100% 29.39 in 2.0 mi North 19.6 mph - N/A   Light Drizzle
3:49 PM 32.0 °F 21.2 °F 32.0 °F 100% 29.39 in 5.0 mi North 16.1 mph 26.5 mph N/A   Overcast
4:00 PM 32.0 °F 21.2 °F 32.0 °F 100% 29.39 in 10.0 mi North 16.1 mph 25.3 mph N/A   Overcast
4:43 PM 32.0 °F 19.8 °F 30.2 °F 93% 29.40 in 3.0 mi North 20.7 mph - N/A   Light Freezing Drizzle
5:00 PM 30.2 °F 17.8 °F 30.2 °F 100% 29.41 in 3.0 mi North 19.6 mph - N/A   Light Freezing Drizzle
5:20 PM 30.2 °F 18.5 °F 30.2 °F 100% 29.40 in 5.0 mi North 17.3 mph 27.6 mph N/A   Light Ice Pellets
5:33 PM 30.2 °F 17.8 °F 30.2 °F 100% 29.40 in 5.0 mi North 19.6 mph 26.5 mph N/A   Light Freezing Drizzle
6:00 PM 30.2 °F 18.1 °F 30.2 °F 100% 29.41 in 3.0 mi North 18.4 mph - N/A Snow Light Snow Showers
6:32 PM 30.2 °F 17.4 °F 28.4 °F 93% 29.41 in 5.0 mi North 20.7 mph - N/A Snow Light Snow Showers
7:00 PM 30.2 °F 16.8 °F 28.4 °F 93% 29.42 in 15.0 mi North 23.0 mph 28.8 mph N/A Snow Light Snow Showers
7:50 PM 30.2 °F 16.5 °F 28.4 °F 93% 29.41 in 15.0 mi North 24.2 mph 33.4 mph N/A   Overcast
8:00 PM 30 °F - 28 °F 90% 29.41 in 15 mi North 23.0 mph - - Snow Light Snow Showers
8:00 PM 30.2 °F 16.8 °F 28.4 °F 93% 29.41 in 15.0 mi North 23.0 mph 29.9 mph N/A Snow Light Snow Showers
9:00 PM 28.4 °F 14.4 °F 28.4 °F 100% 29.40 in 15.0 mi North 23.0 mph 33.4 mph N/A Snow Light Snow Showers
10:00 PM 28.4 °F 15.4 °F 28.4 °F 100% 29.40 in 15.0 mi North 19.6 mph 31.1 mph N/A Snow Light Snow Showers
11:00 PM 28.4 °F 16.6 °F 28.4 °F 100% 29.39 in 12.0 mi NNW 16.1 mph 26.5 mph N/A Snow Light Snow Showers